{"data":{"norad_id":61875,"intl_designator":"2024-204B","name":"STARLINK-11316 [DTC]","alt_names":[],"object_type":"PAYLOAD","status":"ACTIVE","operator":null,"country":"US","launch_date":"2024-11-09","launch_site_code":"AFWTR","launch_vehicle":null,"mission":null,"orbit_class":"UNKNOWN","rcs_meters":null,"size_class":null,"mass_kg":null,"dimensions":null,"purposes":["comms"],"wikipedia_slug":null,"has_3d_model":false,"image_url":null,"decayed_at":null,"tle_current":{"epoch":"2026-09-21T21:11:28.763520Z","epoch_age_seconds":69023,"freshness":"FRESH","line1":"1 61875U 24204B   26264.88297180 -.00002463  00000+0 -15510-4 0  9994","line2":"2 61875  53.1594 108.7648 0000660  75.3532 284.7559 15.69678013107731","mean_motion":15.69678013,"eccentricity":6.6e-5,"inclination_deg":53.1594,"raan_deg":108.7648,"arg_perigee_deg":75.3532,"mean_anomaly_deg":284.7559,"bstar":-1.551e-5,"rev_number":10773,"period_min":91.738559632867,"perigee_km":359.37358147531,"apogee_km":360.26299157313,"semimajor_km":6737.9552865242,"source":"CELESTRAK","updated_at":"2026-09-22T09:00:49.444810Z"}}}